KC4YVV-22 Weather Reports


time (UTC)temp
F
wind
direction
speed
knots
gust
knots
rain 1hr
in
rain 24hr
in
rain mn
in
humidity
%
barometer
mb
20260504044543 46 0 0.0 0.0 0.00 0.00 0.00 84 1018.6
20260504043036 46 0 0.0 0.0 0.00 0.00 0.00 84 1018.6
20260504041536 47 0 0.0 0.0 0.00 0.00 0.00 84 1018.7
20260504040044 47 0 0.0 0.0 0.00 0.00 0.00 84 1018.4
20260504034530 48 0 0.0 0.0 0.00 0.00 0.00 83 1018.2
20260504033030 48 0 0.0 0.0 0.00 0.00 0.00 83 1018.1
20260504031531 49 0 0.0 0.0 0.00 0.00 0.00 83 1018.1
20260504030032 49 0 0.0 0.0 0.00 0.00 0.00 82 1017.9
20260504024530 50 0 0.0 0.0 0.00 0.00 0.00 82 1017.7
20260504023030 50 0 0.0 0.0 0.00 0.00 0.00 81 1017.8
20260504021530 51 0 0.0 0.0 0.00 0.00 0.00 81 1017.6
20260504020032 51 0 0.0 0.0 0.00 0.00 0.00 80 1017.6
20260504014534 52 0 0.0 0.0 0.00 0.00 0.00 79 1017.5
20260504013045 52 0 0.0 0.0 0.00 0.00 0.00 77 1017.5
20260504011531 53 0 0.0 0.0 0.00 0.00 0.00 75 1017.4
20260504010035 54 0 0.0 0.0 0.00 0.00 0.00 72 1017.4
20260504004532 55 0 0.0 0.0 0.00 0.00 0.00 69 1017.3
20260504003032 57 0 0.0 0.0 0.00 0.00 0.00 66 1017.1
20260504001530 58 0 0.0 0.0 0.00 0.00 0.00 62 1017.2
20260504000032 60 0 0.0 0.0 0.00 0.00 0.00 57 1017.1
20260503234532 62 0 0.0 0.0 0.00 0.00 0.00 53 1017.3
20260503233035 64 0 0.0 0.0 0.00 0.00 0.00 50 1017.4
20260503231534 65 0 0.0 3.5 0.00 0.00 0.00 44 1017.5
20260503230032 66 0 0.0 2.6 0.00 0.00 0.00 43 1017.6
20260503224531 68 0 0.9 2.6 0.00 0.00 0.00 36 1017.8
20260503223031 69 299 0.0 3.5 0.00 0.00 0.00 40 1017.8
20260503221538 69 151 0.0 4.3 0.00 0.00 0.00 39 1017.8
20260503220032 69 242 2.6 5.2 0.00 0.00 0.00 36 1018.0
20260503214534 67 0 0.0 6.1 0.00 0.00 0.00 38 1018.0
20260503213039 68 276 1.7 5.2 0.00 0.00 0.00 37 1018.2
20260503211535 68 0 1.7 5.2 0.00 0.00 0.00 38 1018.3
20260503210030 67 235 2.6 6.1 0.00 0.00 0.00 38 1018.4
20260503204532 67 256 2.6 7.0 0.00 0.00 0.00 36 1018.7
20260503203034 67 231 1.7 5.2 0.00 0.00 0.00 39 1019.0
20260503201535 66 269 2.6 4.3 0.00 0.00 0.00 41 1019.3
20260503200033 65 266 0.9 7.8 0.00 0.00 0.00 40 1019.4
20260503194532 64 0 1.7 6.1 0.00 0.00 0.00 42 1019.6
20260503193030 64 272 0.9 4.3 0.00 0.00 0.00 40 1019.8
20260503191530 64 241 2.6 5.2 0.00 0.00 0.00 39 1019.8
20260503190045 64 203 0.9 5.2 0.00 0.00 0.00 44 1019.9
20260503184531 63 161 1.7 7.0 0.00 0.00 0.00 44 1020.2
20260503183042 62 259 3.5 5.2 0.00 0.00 0.00 45 1020.4
20260503181536 62 263 1.7 6.1 0.00 0.00 0.00 46 1020.8
20260503180039 61 165 0.0 5.2 0.00 0.00 0.00 44 1020.9
20260503174535 60 267 2.6 5.2 0.00 0.00 0.00 46 1021.0
20260503173034 60 269 1.7 4.3 0.00 0.00 0.00 48 1021.4
20260503171542 61 225 0.9 4.3 0.00 0.00 0.00 44 1021.6
20260503081540 45 0 0.0 0.0 0.00 0.00 0.00 84 1019.8
20260503071535 46 0 0.0 0.0 0.00 0.00 0.00 84 1019.3